Helicity
43 18 17 12 21 30 55 76 108 170 209 160 105 114 88 148 203 121 52 79 51 39 26 21 18 32 25 24 33 42 48 45 45 51 51 53 58 60 52 50 50 49 44
64 39 24 21 37 44 43 51 62 109 122 182 125 114 138 93 165 214 54 72 76 52 27 36 41 37 45 30 21 27 39 51 49 47 50 45 42 44 43 42 44 44 43
70 44 32 32 54 44 35 54 52 38 119 159 170 146 128 91 141 228 214 112 56 77 48 33 40 38 58 36 45 34 33 19 42 38 49 38 41 38 39 40 40 40 41
69 49 49 57 61 40 38 58 57 54 53 96 105 110 139 112 123 178 225 283 163 111 56 63 40 48 63 62 65 56 56 35 45 46 19 20 30 38 39 40 40 37 34
73 57 56 64 63 51 56 58 61 32 40 93 46 70 111 113 142 131 175 223 223 190 143 129 76 32 37 59 64 71 86 72 81 63 47 33 18 31 35 35 34 32 29
80 73 66 72 76 70 80 73 52 37 54 63 34 64 95 126 163 189 202 209 210 229 168 165 72 33 19 9 -5 6 37 67 55 33 37 32 27 43 47 47 42 40 38
96 94 90 85 94 85 86 87 49 47 127 46 -10 8 56 100 158 182 209 210 219 206 183 135 95 84 63 116 152 75 48 32 23 43 30 45 30 15 25 37 38 29 35
92 90 94 91 95 80 96 98 85 41 56 88 -2 -20 -11 13 73 84 135 179 170 157 169 125 79 10 10 20 19 107 114 128 109 66 41 43 35 31 1 9 20 34 22
93 95 99 96 94 89 100 96 94 77 38 39 66 -1 3 10 -26 5 42 81 124 153 149 115 107 160 155 175 128 150 141 122 92 93 69 50 54 41 40 31 8 5 17
97 96 94 88 85 74 91 83 82 67 32 41 -10 58 35 8 -17 -29 -32 17 51 71 71 111 119 133 132 106 126 157 167 153 137 107 133 79 32 23 38 56 51 44 13
90 95 94 92 87 77 74 72 74 69 43 31 37 -5 8 5 8 -9 -38 -70 -45 -18 45 80 132 165 159 138 108 141 150 109 113 124 108 127 65 37 50 77 74 73 61
85 87 83 79 76 71 68 64 66 82 68 50 20 34 42 16 0 -5 -25 -20 -4 41 73 71 57 45 38 34 35 68 88 95 128 102 92 117 116 133 99 77 81 102 81
89 84 79 74 62 57 57 53 53 55 58 46 44 14 12 18 12 5 14 11 38 48 45 43 5 -10 -29 -48 -45 -12 16 41 51 68 94 121 98 105 158 159 101 63 60
94 76 74 70 64 59 55 50 43 40 45 46 57 43 26 5 1 4 8 16 19 19 20 31 42 5 -26 -4 1 30 27 52 61 56 54 67 66 87 102 105 142 126 118
105 85 70 72 69 67 60 57 57 54 52 46 49 47 33 27 25 20 17 13 12 24 1 8 23 10 11 34 28 36 45 42 51 55 47 51 53 51 73 72 79 90 88
104 84 68 65 59 58 58 62 65 65 64 53 50 50 40 33 36 32 31 22 7 14 19 28 33 25 41 45 51 56 55 47 52 59 52 45 54 52 54 73 77 84 81
106 89 80 80 74 71 65 70 66 65 68 64 57 57 54 48 46 47 44 41 38 42 53 66 51 37 37 48 57 54 44 46 58 69 73 75 71 70 68 56 65 76 89
109 90 87 83 76 71 62 61 58 63 63 66 62 63 62 57 59 59 55 53 54 50 57 60 88 71 71 56 49 39 42 33 47 47 50 60 80 82 63 51 49 52 50
129 108 101 89 84 79 76 70 70 64 65 68 65 63 61 61 59 56 54 54 59 62 60 63 72 79 77 82 71 51 44 53 74 44 19 53 68 83 82 71 76 84 85
170 150 130 110 98 95 90 84 82 82 80 77 73 70 69 63 61 64 58 62 75 76 75 82 86 86 78 66 56 57 73 58 64 36 36 68 69 74 69 73 56 55 71
208 213 195 161 137 129 127 115 107 100 99 95 87 82 77 77 95 75 87 92 100 95 97 96 105 101 91 85 74 51 54 59 30 -3 38 8 -25 30 76 101 99 115 124
281 281 264 242 206 185 114 87 118 135 125 121 120 115 117 108 93 78 72 74 86 108 121 133 128 129 125 120 93 85 69 33 41 51 27 82 -7 -3 -109 13 81 111 108
352 312 319 320 273 235 126 106 106 184 169 160 151 148 147 139 107 136 103 87 85 77 72 122 141 145 144 144 126 125 108 91 101 104 74 111 54 34 2 -6 -47 8 93
389 381 346 347 335 257 141 125 121 210 210 197 190 181 181 165 167 157 159 160 151 142 124 123 138 147 141 134 133 127 119 122 107 87 54 95 50 43 26 27 -27 -5 61
410 405 427 419 348 306 147 124 151 240 230 223 215 216 205 186 154 132 185 182 184 166 135 115 120 114 114 109 109 143 155 134 116 113 64 87 75 35 7 -7 18 53 86
366 391 388 388 296 315 177 151 168 290 284 261 243 248 154 186 137 134 203 208 192 160 186 213 218 194 169 152 114 143 188 179 165 125 149 147 84 4 17 -16 56 15 -9
Wind_Speed
52 52 52 52 51 49 47 45 45 45 44 43 39 37 34 35 38 28 23 26 27 31 28 29 29 29 29 29 32 33 36 36 39 41 43 44 45 46 47 49 50 53 55
51 51 52 52 52 52 50 49 47 47 44 44 42 41 37 27 30 34 24 22 25 27 28 32 28 31 31 31 33 34 35 38 40 41 43 44 45 45 47 48 50 51 54
50 50 50 52 53 52 51 49 48 46 44 45 44 44 40 32 26 33 32 24 22 23 27 30 31 30 32 34 34 36 38 37 41 43 44 45 45 46 46 47 49 51 53
49 48 50 51 51 51 51 49 49 47 46 44 44 45 41 35 29 28 31 31 27 23 25 29 32 32 34 37 37 39 41 43 44 43 43 46 46 47 48 48 49 50 52
48 47 47 49 50 49 50 49 48 48 47 44 44 42 41 39 34 29 29 29 31 30 26 30 32 33 35 37 40 42 44 43 45 46 46 46 47 48 50 50 50 50 52
47 46 46 47 48 48 49 47 47 49 47 43 43 44 42 41 40 35 30 29 29 29 30 33 33 37 37 39 40 42 45 48 45 45 46 47 48 49 49 50 52 52 52
46 45 45 45 46 46 47 47 45 47 48 44 38 43 48 46 44 41 37 32 31 31 32 35 38 42 46 47 50 51 51 51 51 52 50 49 50 50 50 51 51 51 52
43 42 43 43 44 42 44 45 44 43 45 47 37 36 37 42 47 47 42 40 37 35 33 37 37 39 45 48 52 55 59 60 60 61 59 57 55 53 53 55 56 54 53
40 41 41 41 41 41 41 42 44 43 41 44 45 37 37 38 38 41 44 44 42 42 38 36 39 43 47 48 53 58 62 61 61 65 64 62 62 59 60 60 57 58 56
37 38 38 38 38 38 39 40 41 42 39 39 39 44 40 38 37 36 39 45 44 44 43 42 42 44 46 47 53 59 63 63 63 61 63 65 62 59 63 63 65 63 61
33 34 35 36 36 36 37 38 38 39 40 40 39 38 38 40 40 38 39 41 43 44 47 43 45 47 50 52 57 62 62 64 67 66 62 59 61 61 61 68 68 66 68
28 30 31 32 34 34 34 35 36 38 39 39 39 40 39 37 39 38 37 39 42 42 44 42 46 48 51 56 58 62 62 65 69 67 65 61 60 59 63 64 66 72 70
24 25 27 29 30 31 32 33 34 35 37 37 38 37 38 38 38 38 37 37 38 38 39 40 44 49 55 59 60 66 64 67 68 67 68 68 64 64 64 67 67 70 74
21 22 24 26 28 30 30 31 32 33 34 36 36 36 36 36 37 38 37 39 39 38 37 41 40 53 60 62 63 67 66 68 67 67 67 69 70 71 69 66 69 72 74
18 19 22 24 26 28 29 29 31 32 32 33 35 35 35 37 38 38 39 38 39 42 40 40 46 56 64 63 63 65 65 67 67 66 69 71 73 73 72 73 73 73 74
16 17 20 22 24 26 28 29 30 31 31 32 33 34 35 37 37 38 39 37 37 38 42 42 50 59 62 63 63 64 65 65 67 67 72 74 73 71 72 74 76 76 76
17 19 21 23 24 26 27 28 29 29 30 31 33 34 36 37 37 38 39 39 40 40 44 47 52 60 63 66 66 66 66 67 68 73 75 74 69 72 75 77 78 79 79
19 20 22 24 25 26 27 27 28 29 31 32 33 35 36 37 38 40 41 42 42 44 47 54 57 62 65 67 68 70 70 67 74 75 75 68 73 80 82 82 81 81 82
22 23 24 26 27 28 29 30 31 31 33 33 34 36 37 38 40 41 42 43 44 46 49 52 58 62 66 69 71 71 71 74 77 78 69 69 77 85 84 83 82 82 82
28 28 29 29 30 30 31 32 33 34 35 36 36 37 38 40 41 43 44 46 47 51 53 58 63 67 69 72 72 79 83 80 85 74 68 76 84 84 84 85 84 82 82
35 35 34 34 35 35 35 35 36 37 38 39 40 40 41 41 42 45 47 48 51 54 58 63 67 70 73 78 80 79 84 88 85 70 88 84 83 82 81 83 81 84 88
43 42 41 40 40 41 40 39 40 41 42 44 45 45 45 44 47 48 48 50 52 58 62 65 70 75 76 78 77 83 88 92 91 74 100 95 87 89 83 81 88 93 91
47 48 47 46 48 47 44 44 43 46 47 48 49 50 51 49 48 49 51 53 55 57 59 63 73 74 77 75 81 86 86 89 90 92 95 100 89 92 86 86 97 88 82
54 54 54 53 54 53 51 49 49 51 52 52 52 52 53 54 52 54 56 59 61 61 62 62 65 69 72 72 75 78 83 88 86 82 81 97 88 95 94 91 82 78 83
61 61 61 61 60 58 53 53 52 54 56 59 58 55 56 57 56 57 59 64 67 68 65 64 66 67 69 71 74 78 86 93 99 91 80 86 87 103 94 83 70 77 90
68 66 67 64 60 60 55 56 55 58 62 63 63 60 58 59 59 60 64 67 76 74 71 70 70 71 71 72 73 73 75 88 92 97 70 93 93 91 101 76 73 86 87
Wind_Direction
351 355 354 354 352 344 335 332 335 333 344 352 344 331 330 326 324 345 5 356 352 351 359 351 343 352 350 353 352 350 345 349 350 350 351 350 350 351 352 353 356 357 358
348 353 356 355 353 350 346 344 344 338 344 345 356 349 331 343 340 341 354 359 350 350 353 351 351 343 343 344 346 347 345 340 340 343 344 346 348 349 349 350 352 354 354
349 353 356 355 350 350 349 350 353 353 347 344 350 350 349 346 342 344 345 353 355 350 344 347 347 345 346 341 336 337 338 342 338 336 338 336 339 340 343 345 347 348 350
352 356 356 352 350 355 354 351 352 356 351 351 352 357 358 354 356 346 353 346 348 2 350 337 340 343 344 340 339 336 331 330 333 337 339 335 333 335 337 339 341 343 344
356 359 360 356 356 357 356 356 356 0 355 354 5 5 7 7 360 354 352 358 0 355 356 353 343 338 340 343 340 337 339 336 332 331 334 336 335 332 330 331 335 337 339
356 356 359 358 360 360 357 357 360 3 2 3 10 15 15 12 9 4 355 348 352 359 5 356 352 334 339 335 333 335 335 332 333 334 333 332 333 334 334 332 331 333 335
354 355 356 357 357 1 360 0 3 6 4 2 19 22 29 24 18 13 7 358 352 348 347 348 335 331 327 329 327 326 327 328 329 328 325 327 329 326 326 329 332 334 335
354 355 356 357 357 0 359 0 3 6 11 7 7 8 9 14 18 21 14 11 5 1 354 347 351 346 336 331 330 331 322 322 323 318 322 323 319 321 322 320 319 322 328
357 357 357 359 0 1 360 359 0 3 5 9 12 6 0 359 7 13 14 15 10 4 0 357 356 347 342 338 332 331 333 330 324 317 318 317 317 317 314 314 318 317 317
360 359 360 1 2 3 2 360 358 3 6 3 6 8 13 9 3 4 10 7 10 7 4 1 1 355 348 342 334 333 337 340 342 333 323 320 320 320 313 315 312 313 317
0 360 1 1 2 2 2 3 2 4 8 9 6 2 2 3 359 357 352 354 2 7 6 15 11 6 359 335 332 332 332 335 342 342 346 340 331 329 327 312 310 314 311
360 1 1 2 1 1 0 0 1 1 4 6 10 9 5 4 2 0 356 353 352 357 2 17 15 13 8 354 339 340 340 335 341 343 347 351 347 337 327 322 320 311 311
351 358 359 359 358 358 358 1 3 5 3 4 4 9 12 11 10 7 6 1 357 4 8 16 16 6 357 350 347 335 338 334 336 342 341 344 345 341 337 328 324 316 310
345 352 352 352 352 353 355 358 359 3 4 3 3 3 6 8 8 8 6 1 357 2 8 5 10 358 351 347 345 338 339 336 338 338 339 337 338 331 333 336 328 322 315
342 345 346 346 345 346 348 351 352 354 358 358 358 359 359 358 358 359 360 2 0 350 353 2 358 349 346 348 347 345 344 343 342 341 337 332 330 332 332 327 326 326 327
328 330 332 334 336 339 339 340 343 347 351 352 353 354 354 353 354 355 353 358 359 357 348 354 348 343 344 347 350 350 350 350 348 349 343 337 333 333 332 331 331 330 326
313 315 318 321 324 327 330 333 336 340 342 344 345 346 346 346 347 347 347 347 347 348 342 342 341 339 339 338 340 345 346 346 347 342 340 340 342 337 332 328 327 327 328
301 304 308 310 313 316 319 322 324 327 329 331 333 335 336 337 338 338 338 339 339 339 338 333 335 337 336 337 337 338 339 343 340 338 337 340 338 335 331 326 325 324 324
291 296 299 302 305 306 309 312 314 317 319 322 324 325 327 328 329 331 332 332 334 334 334 332 331 333 333 334 335 336 336 335 336 335 337 337 334 333 331 330 328 328 326
283 287 291 294 296 299 301 303 306 309 311 314 315 317 319 320 321 323 325 326 327 327 328 327 326 326 328 329 331 329 328 332 330 332 336 333 330 331 330 329 328 328 327
278 283 285 288 290 292 294 297 299 301 304 306 308 310 312 314 316 317 318 320 322 322 322 322 321 322 324 325 326 327 325 325 327 332 325 327 329 330 331 331 329 327 326
274 278 280 281 283 287 288 289 292 296 299 300 302 305 307 308 310 311 313 315 316 316 316 318 317 318 320 323 326 326 324 322 320 327 322 320 325 324 326 328 327 324 322
272 274 276 279 280 281 284 285 287 292 293 296 298 301 302 304 306 308 309 310 312 313 313 314 313 316 317 322 323 322 323 320 318 321 320 315 322 319 323 324 321 323 325
270 275 276 277 279 279 279 281 284 287 290 292 295 296 298 300 302 304 305 307 308 310 311 311 313 315 317 319 320 320 320 319 320 322 323 314 321 316 319 322 321 324 324
274 275 278 277 277 277 276 278 281 285 287 289 292 293 295 297 299 301 302 303 305 306 308 308 310 312 314 316 318 318 316 316 315 318 324 317 319 316 318 320 322 321 319
276 278 278 278 276 276 274 275 277 283 285 287 288 289 291 294 296 297 298 300 300 303 306 306 307 309 310 312 313 313 315 312 314 315 322 319 317 321 313 317 318 319 318